Погода в Бо

Сьерра-Леоне     7°57′13″N   11°44′06″W
темп.,
°C
ветер,
м/с
пор.,
м/с
влажн.,
%
обл.,
%
осадки,
мм/ч
давл.,
гПа
погр.,
м
27 ноября, сб
сб2700:00+24ююв11969 0.6 101114
03:00+23ссз119813 0.0 101015
06:00+22с009924 0.0 101115
09:00+27ююв018217 0.2 1013351
12:00+33ююз115175 0.2 10111384
15:00+35ю153936 0.0 10082651
18:00+29зюз136222 0.0 100874
21:00+25ююз159016 1.1 1012175
28 ноября, вс
вс2800:00+24з12944 1.1 101176
03:00+23зсз01964 0.0 101016
06:00+23юв009820 0.0 101116
09:00+27зюз118226 0.0 1013431
12:00+32з115750 0.3 10111414
15:00+29сз016979 0.4 1009259
18:00+27юз2683100 0.6 1009313
21:00+24юз159690 1.1 1011145
29 ноября, пн
пн2900:00+23ююз009710 1.1 101217
03:00+23зюз019923 0.0 101017
06:00+23ссв019931 0.0 101017
09:00+26с018737 0.0 1012362
12:00+32з015658 0.2 10101412
15:00+29юз126981 0.3 1008223
18:00+25юз24899 1.5 100978
21:00+24зюз1395100 0.1 101168
30 ноября, вт
вт3000:00+24ююв119657 0.2 101219
03:00+23з0097100 0.0 101027
06:00+23в119930 0.0 101015
09:00+26ююв018427 0.0 1012391
12:00+32ююз115683 0.1 10111468
15:00+28в017799 0.9 100840
18:00+26зюз1485100 1.5 1009180
21:00+24юз019318 0.0 101213
1 декабря, ср
ср100:00+24з129099 0.1 101287
03:00+23зюз119584 0.2 101026
06:00+23св00942 0.2 101022
09:00+27сз01785 0.0 1012412
12:00+32юз115338 0.0 10111469
15:00+29зюз1268100 0.1 100871
18:00+26зюз278473 0.5 1009274
21:00+24ююз16945 0.5 1011166